Weather in Kyrylivka

Ukraine / Zaporizhia Region     46°21′56″N   35°20′03″E
temp.,
°C
wind,
m/s
gust,
m/s
humid.,
%
clouds,
%
prec.,
mm/h
press.,
hPa
HPBL,
m
5 march, fri
fri523:00+5sw1115780 0.0 1016464
02:00+5sw1015820 0.0 1016531
05:00+6sw9138716 0.0 1015437
08:00+5ssw7118556 0.0 1014341
11:00+6s678139 0.0 1014135
14:00+7sse567840 0.0 101356
17:00+9sw677535 0.0 101254
20:00+7sw798568 0.0 101396
6 march, sat
sat623:00+6sw6892100 0.0 1012150
02:00+6wsw71292100 0.0 1012232
05:00+6wsw81391100 0.0 1012255
08:00+5nw8118798 0.0 1014517
11:00+4nnw101176100 0.0 1017874
14:00+4nnw91064100 0.0 10191274
17:00+4nnw91056100 0.0 10221492
20:00+2n10115567 0.0 10251055
7 march, sun
sun723:00+1nnw78570 0.0 1027892
02:00+1nw67530 0.0 1028757
05:00+1wnw66510 0.0 1028492
08:00+2w78510 0.0 1028795
11:00+3wsw9115710 0.0 10271636
14:00+4wsw10125840 0.0 10251517
17:00+3wsw1112570 0.0 10231072
20:00+3wsw10126312 0.0 10221044
8 march, mon
mon823:00+4wsw1113650 0.0 10221009
02:00+4wsw1214670 0.0 10201116
05:00+4wsw12137120 0.0 10191119
08:00+4wsw11137460 0.0 1019955
11:00+5wsw9127595 0.0 1018915
14:00+6wsw8127750 0.0 1017620
17:00+6wsw8127511 0.0 1016541
20:00+5wsw7108356 0.1 1016557
9 march, tue
tue923:00+5wsw8108193 0.2 1016565
02:00+4wsw998888 0.6 1016533
05:00+4wsw788856 0.3 1015526
08:00+4wsw788836 0.3 1016545
11:00+4w236422 0.0 1017384
14:00+5wnw346932 0.1 1017778
17:00+5n356592 0.1 10171076
20:00+4nne665558 0.1 1019844